Location: Oshawa
(43.9000°N, 78.8670°W)
Time: 19:17:18
(UTC-04:00)

Iridium 98 - Visible Passes

Search period start: 25 June 2016 00:00
Search period end: 05 July 2016 00:00
Orbit: 776 x 779 km, 86.4° (Epoch: 25 June)

Date Brightness Start Highest point End Pass type
(mag) Time Alt. Az. Time Alt. Az. Time Alt. Az.
25 Jun 8.5 04:34:08 10° NE 04:36:38 13° ENE 04:39:07 10° E visible
28 Jun 8.2 04:33:19 10° NNE 04:36:58 19° ENE 04:40:37 10° ESE visible
29 Jun 8.8 04:02:07 10° ENE 04:03:01 10° ENE 04:03:54 10° ENE visible
01 Jul 7.8 04:32:54 10° NNE 04:37:16 26° ENE 04:41:36 10° SE visible
02 Jul 8.3 04:00:25 10° NE 04:03:24 15° ENE 04:06:22 10° ESE visible
04 Jul 7.1 04:32:40 10° NNE 04:37:30 37° E 04:42:18 10° SSE visible
